Time,TemperatureF,DewpointF,PressureIn,WindDirection,WindDirectionDegrees,WindSpeedMPH,WindSpeedGustMPH,Humidity,HourlyPrecipIn,Conditions,Clouds,dailyrainin,SoftwareType,DateUTC
2013-06-16 00:01:00,78.9,71.1,29.96,SE,144,0.0,10.0,77,0.00,,SKC,0.01,VWS V14.01,2013-06-16 05:01:00,
2013-06-16 00:06:00,78.7,71.3,29.96,SE,144,7.0,7.0,78,0.00,,SKC,0.00,VWS V14.01,2013-06-16 05:06:00,
2013-06-16 00:11:00,78.5,71.1,29.96,SE,144,7.0,8.0,78,0.00,,SKC,0.00,VWS V14.01,2013-06-16 05:11:00,
2013-06-16 00:16:00,78.4,71.3,29.96,SE,144,3.0,8.0,79,0.00,,SKC,0.00,VWS V14.01,2013-06-16 05:16:00,
2013-06-16 00:21:00,78.2,71.2,29.97,SE,144,1.0,8.0,79,0.00,,SKC,0.00,VWS V14.01,2013-06-16 05:21:00,
2013-06-16 00:26:00,78.0,71.3,29.97,SE,143,6.0,9.0,80,0.00,,SKC,0.00,VWS V14.01,2013-06-16 05:26:00,
2013-06-16 00:31:00,77.9,71.6,29.97,SE,143,6.0,9.0,81,0.00,,SKC,0.00,VWS V14.01,2013-06-16 05:31:00,
2013-06-16 00:36:00,77.7,71.4,29.97,SE,143,3.0,8.0,81,0.00,,SKC,0.00,VWS V14.01,2013-06-16 05:36:00,
2013-06-16 00:41:00,77.6,71.7,29.97,SE,144,4.0,11.0,82,0.00,,SKC,0.00,VWS V14.01,2013-06-16 05:41:00,
2013-06-16 00:46:00,77.4,71.5,29.97,SE,144,3.0,11.0,82,0.00,,SKC,0.00,VWS V14.01,2013-06-16 05:46:00,
2013-06-16 00:51:00,77.2,71.6,29.97,SE,145,6.0,11.0,83,0.00,,SKC,0.00,VWS V14.01,2013-06-16 05:51:00,
2013-06-16 00:56:00,77.1,71.5,29.97,SE,145,4.0,11.0,83,0.00,,SKC,0.00,VWS V14.01,2013-06-16 05:56:00,
2013-06-16 01:01:00,77.0,71.8,29.96,SE,145,1.0,11.0,84,0.00,,SKC,0.00,VWS V14.01,2013-06-16 06:01:00,
2013-06-16 01:06:00,76.9,71.7,29.96,SE,145,3.0,6.0,84,0.00,,SKC,0.00,VWS V14.01,2013-06-16 06:06:00,
2013-06-16 01:11:00,76.7,71.9,29.96,SE,145,6.0,7.0,85,0.00,,SKC,0.00,VWS V14.01,2013-06-16 06:11:00,
2013-06-16 01:16:00,76.6,71.8,29.96,SE,144,0.0,7.0,85,0.00,,SKC,0.00,VWS V14.01,2013-06-16 06:16:00,
2013-06-16 01:21:00,76.5,72.0,29.96,SE,144,0.0,8.0,86,0.00,,SKC,0.00,VWS V14.01,2013-06-16 06:21:00,
2013-06-16 01:26:00,76.4,71.9,29.96,SE,144,6.0,8.0,86,0.00,,SKC,0.00,VWS V14.01,2013-06-16 06:26:00,
2013-06-16 01:31:00,76.2,71.7,29.96,SE,144,2.0,8.0,86,0.00,,SKC,0.00,VWS V14.01,2013-06-16 06:31:00,
2013-06-16 01:36:00,76.1,71.9,29.96,SE,144,2.0,5.0,87,0.00,,SKC,0.00,VWS V14.01,2013-06-16 06:36:00,
2013-06-16 01:41:00,76.0,71.9,29.96,SE,144,0.0,5.0,87,0.00,,SKC,0.00,VWS V14.01,2013-06-16 06:41:00,
2013-06-16 01:46:00,75.9,71.8,29.96,SE,144,3.0,7.0,87,0.00,,SKC,0.00,VWS V14.01,2013-06-16 06:46:00,
2013-06-16 01:51:00,75.8,72.0,29.96,SE,144,5.0,7.0,88,0.00,,SKC,0.00,VWS V14.01,2013-06-16 06:51:00,
2013-06-16 01:56:00,75.8,72.0,29.96,SE,144,4.0,7.0,88,0.00,,SKC,0.00,VWS V14.01,2013-06-16 06:56:00,
2013-06-16 02:01:00,75.7,71.9,29.96,SE,144,4.0,7.0,88,0.00,,SKC,0.00,VWS V14.01,2013-06-16 07:01:00,
2013-06-16 02:06:00,75.7,72.2,29.95,SE,144,7.0,7.0,89,0.00,,SKC,0.00,VWS V14.01,2013-06-16 07:06:00,
2013-06-16 02:11:00,75.7,72.2,29.95,SE,144,1.0,7.0,89,0.00,,SKC,0.00,VWS V14.01,2013-06-16 07:11:00,
2013-06-16 02:16:00,75.6,72.1,29.95,SE,145,2.0,10.0,89,0.00,,SKC,0.00,VWS V14.01,2013-06-16 07:16:00,
2013-06-16 02:21:00,75.6,72.1,29.95,SE,145,7.0,10.0,89,0.00,,SKC,0.00,VWS V14.01,2013-06-16 07:21:00,
2013-06-16 02:26:00,75.5,72.4,29.95,SE,145,0.0,10.0,90,0.00,,SKC,0.00,VWS V14.01,2013-06-16 07:26:00,
2013-06-16 02:31:00,75.5,72.4,29.95,SE,145,3.0,10.0,90,0.00,,SKC,0.00,VWS V14.01,2013-06-16 07:31:00,
2013-06-16 02:36:00,75.4,72.3,29.95,SE,145,4.0,10.0,90,0.00,,SKC,0.00,VWS V14.01,2013-06-16 07:36:00,
2013-06-16 02:41:00,75.4,72.3,29.95,SE,145,6.0,10.0,90,0.00,,SKC,0.00,VWS V14.01,2013-06-16 07:41:00,
2013-06-16 02:46:00,75.3,72.2,29.94,SE,145,2.0,10.0,90,0.00,,SKC,0.00,VWS V14.01,2013-06-16 07:46:00,
2013-06-16 02:51:00,75.3,72.5,29.94,SE,145,2.0,10.0,91,0.00,,SKC,0.00,VWS V14.01,2013-06-16 07:51:00,
2013-06-16 02:56:00,75.3,72.5,29.94,SE,145,3.0,10.0,91,0.00,,SKC,0.00,VWS V14.01,2013-06-16 07:56:00,
2013-06-16 03:01:00,75.2,72.4,29.94,SE,145,4.0,10.0,91,0.00,,SKC,0.00,VWS V14.01,2013-06-16 08:01:00,
2013-06-16 03:06:00,75.2,72.4,29.94,SE,145,1.0,6.0,91,0.00,,SKC,0.00,VWS V14.01,2013-06-16 08:06:00,
2013-06-16 03:11:00,75.2,72.4,29.94,SE,145,0.0,6.0,91,0.00,,SKC,0.00,VWS V14.01,2013-06-16 08:11:00,
2013-06-16 03:16:00,75.2,72.4,29.94,SE,145,4.0,6.0,91,0.00,,SKC,0.00,VWS V14.01,2013-06-16 08:16:00,
2013-06-16 03:21:00,75.2,72.7,29.94,SE,145,0.0,6.0,92,0.00,,SKC,0.00,VWS V14.01,2013-06-16 08:21:00,
2013-06-16 03:26:00,75.1,72.6,29.94,SE,145,0.0,6.0,92,0.00,,SKC,0.00,VWS V14.01,2013-06-16 08:26:00,
2013-06-16 03:31:00,75.1,72.6,29.94,SE,145,0.0,6.0,92,0.00,,SKC,0.00,VWS V14.01,2013-06-16 08:31:00,
2013-06-16 03:36:00,75.1,72.6,29.95,SE,145,0.0,3.0,92,0.00,,SKC,0.00,VWS V14.01,2013-06-16 08:36:00,
2013-06-16 03:41:00,75.1,72.6,29.95,SE,145,0.0,3.0,92,0.00,,SKC,0.00,VWS V14.01,2013-06-16 08:41:00,
2013-06-16 03:46:00,75.1,72.6,29.95,SE,145,4.0,5.0,92,0.00,,SKC,0.00,VWS V14.01,2013-06-16 08:46:00,
2013-06-16 03:51:00,75.1,72.6,29.95,SE,145,0.0,5.0,92,0.00,,SKC,0.00,VWS V14.01,2013-06-16 08:51:00,
2013-06-16 03:56:00,75.1,72.6,29.95,SE,145,0.0,5.0,92,0.00,,SKC,0.00,VWS V14.01,2013-06-16 08:56:00,
2013-06-16 04:01:00,75.1,72.6,29.95,SE,145,1.0,5.0,92,0.00,,SKC,0.00,VWS V14.01,2013-06-16 09:01:00,
2013-06-16 04:06:00,75.0,72.5,29.95,SE,145,2.0,4.0,92,0.00,,SKC,0.00,VWS V14.01,2013-06-16 09:06:00,
2013-06-16 04:11:00,75.0,72.5,29.95,SE,145,3.0,4.0,92,0.00,,SKC,0.00,VWS V14.01,2013-06-16 09:11:00,
2013-06-16 04:16:00,75.1,72.6,29.95,SE,145,2.0,5.0,92,0.00,,SKC,0.00,VWS V14.01,2013-06-16 09:16:00,
2013-06-16 04:28:00,75.1,72.6,29.95,SE,145,1.0,1.0,92,0.00,,SKC,0.00,VWS V14.01,2013-06-16 09:28:00,
2013-06-16 04:33:00,75.1,72.6,29.95,SE,145,0.0,1.0,92,0.00,,SKC,0.00,VWS V14.01,2013-06-16 09:33:00,
2013-06-16 04:38:00,75.1,72.6,29.95,SE,145,3.0,5.0,92,0.00,,SKC,0.00,VWS V14.01,2013-06-16 09:38:00,
2013-06-16 04:43:00,75.2,72.7,29.95,SE,146,3.0,8.0,92,0.00,,SKC,0.00,VWS V14.01,2013-06-16 09:43:00,
2013-06-16 04:48:00,75.2,72.7,29.96,South,191,0.0,11.0,92,0.00,,SKC,0.00,VWS V14.01,2013-06-16 09:48:00,
2013-06-16 04:53:00,75.2,72.7,29.96,South,181,3.0,11.0,92,0.00,,SKC,0.00,VWS V14.01,2013-06-16 09:53:00,
2013-06-16 04:58:00,75.3,72.8,29.95,South,187,4.0,11.0,92,0.00,,SKC,0.00,VWS V14.01,2013-06-16 09:58:00,
2013-06-16 05:03:00,75.3,72.8,29.96,South,186,2.0,6.0,92,0.00,,SKC,0.00,VWS V14.01,2013-06-16 10:03:00,
2013-06-16 05:08:00,75.4,72.9,29.96,South,187,0.0,7.0,92,0.00,,SKC,0.00,VWS V14.01,2013-06-16 10:08:00,
2013-06-16 05:13:00,75.4,72.6,29.96,South,189,3.0,9.0,91,0.00,,SKC,0.00,VWS V14.01,2013-06-16 10:13:00,
2013-06-16 05:18:00,75.5,72.7,29.96,South,189,2.0,9.0,91,0.00,,SKC,0.00,VWS V14.01,2013-06-16 10:18:00,
2013-06-16 05:23:00,75.5,72.7,29.96,South,189,0.0,9.0,91,0.00,,SKC,0.00,VWS V14.01,2013-06-16 10:23:00,
2013-06-16 05:28:00,75.5,72.7,29.96,South,190,0.0,9.0,91,0.00,,SKC,0.00,VWS V14.01,2013-06-16 10:28:00,
2013-06-16 05:33:00,75.5,72.7,29.96,South,190,4.0,4.0,91,0.00,,SKC,0.00,VWS V14.01,2013-06-16 10:33:00,
2013-06-16 05:38:00,75.5,72.7,29.96,South,189,3.0,7.0,91,0.00,,SKC,0.00,VWS V14.01,2013-06-16 10:38:00,
2013-06-16 05:43:00,75.5,72.7,29.97,South,186,0.0,7.0,91,0.00,,SKC,0.00,VWS V14.01,2013-06-16 10:43:00,
2013-06-16 05:48:00,75.4,72.6,29.97,South,186,5.0,7.0,91,0.00,,SKC,0.00,VWS V14.01,2013-06-16 10:48:00,
2013-06-16 05:53:00,75.4,72.6,29.96,South,186,0.0,7.0,91,0.00,,SKC,0.00,VWS V14.01,2013-06-16 10:53:00,
2013-06-16 05:58:00,75.3,72.5,29.97,South,186,0.0,7.0,91,0.00,,SKC,0.00,VWS V14.01,2013-06-16 10:58:00,
2013-06-16 06:03:00,75.3,72.5,29.97,South,186,0.0,1.0,91,0.00,,SKC,0.00,VWS V14.01,2013-06-16 11:03:00,
2013-06-16 06:08:00,75.2,72.4,29.97,South,186,0.0,3.0,91,0.00,,SKC,0.00,VWS V14.01,2013-06-16 11:08:00,
2013-06-16 06:13:00,75.1,72.3,29.97,South,186,0.0,4.0,91,0.00,,SKC,0.00,VWS V14.01,2013-06-16 11:13:00,
2013-06-16 06:18:00,75.1,72.3,29.98,South,186,0.0,4.0,91,0.00,,SKC,0.00,VWS V14.01,2013-06-16 11:18:00,
2013-06-16 06:23:00,75.1,72.3,29.98,South,186,0.0,4.0,91,0.00,,SKC,0.00,VWS V14.01,2013-06-16 11:23:00,
2013-06-16 06:28:00,75.1,72.3,29.98,South,186,0.0,4.0,91,0.00,,SKC,0.00,VWS V14.01,2013-06-16 11:28:00,
2013-06-16 06:33:00,75.0,72.2,29.98,South,186,0.0,0.0,91,0.00,,SKC,0.00,VWS V14.01,2013-06-16 11:33:00,
2013-06-16 06:38:00,75.0,72.2,29.98,South,186,1.0,1.0,91,0.00,,SKC,0.00,VWS V14.01,2013-06-16 11:38:00,
2013-06-16 06:43:00,75.0,72.5,29.98,South,186,0.0,4.0,92,0.00,,SKC,0.00,VWS V14.01,2013-06-16 11:43:00,
2013-06-16 06:48:00,74.9,72.4,29.98,South,186,0.0,4.0,92,0.00,,SKC,0.00,VWS V14.01,2013-06-16 11:48:00,
2013-06-16 06:53:00,74.9,72.4,29.98,South,186,0.0,4.0,92,0.00,,SKC,0.00,VWS V14.01,2013-06-16 11:53:00,
2013-06-16 06:58:00,74.9,72.4,29.98,South,186,0.0,5.0,92,0.00,,SKC,0.00,VWS V14.01,2013-06-16 11:58:00,
2013-06-16 07:03:00,74.8,72.3,29.98,South,186,2.0,4.0,92,0.00,,SKC,0.00,VWS V14.01,2013-06-16 12:03:00,
2013-06-16 07:08:00,74.8,72.3,29.98,South,186,0.0,4.0,92,0.00,,SKC,0.00,VWS V14.01,2013-06-16 12:08:00,
2013-06-16 07:13:00,74.8,72.3,29.98,South,186,1.0,4.0,92,0.00,,SKC,0.00,VWS V14.01,2013-06-16 12:13:00,
2013-06-16 07:18:00,74.8,72.3,29.98,South,186,1.0,4.0,92,0.00,,SKC,0.00,VWS V14.01,2013-06-16 12:18:00,
2013-06-16 07:23:00,74.9,72.4,29.98,South,186,3.0,6.0,92,0.00,,SKC,0.00,VWS V14.01,2013-06-16 12:23:00,
2013-06-16 07:28:00,74.9,72.4,29.98,South,186,3.0,6.0,92,0.00,,SKC,0.00,VWS V14.01,2013-06-16 12:28:00,
2013-06-16 07:33:00,75.0,72.5,29.99,South,186,0.0,6.0,92,0.00,,SKC,0.00,VWS V14.01,2013-06-16 12:33:00,
2013-06-16 07:38:00,75.1,72.6,29.99,South,186,2.0,6.0,92,0.00,,SKC,0.00,VWS V14.01,2013-06-16 12:38:00,
2013-06-16 07:43:00,75.1,72.6,29.99,South,184,4.0,7.0,92,0.00,,SKC,0.00,VWS V14.01,2013-06-16 12:43:00,
2013-06-16 07:48:00,75.2,72.7,29.99,South,183,2.0,7.0,92,0.00,,SKC,0.00,VWS V14.01,2013-06-16 12:48:00,
2013-06-16 07:53:00,75.4,72.9,29.99,South,184,0.0,7.0,92,0.00,,SKC,0.00,VWS V14.01,2013-06-16 12:53:00,
2013-06-16 07:58:00,75.5,73.0,30.00,South,183,0.0,7.0,92,0.00,,SKC,0.00,VWS V14.01,2013-06-16 12:58:00,
2013-06-16 08:03:00,75.6,72.8,30.00,South,182,2.0,4.0,91,0.00,,SKC,0.00,VWS V14.01,2013-06-16 13:03:00,
2013-06-16 08:08:00,75.9,73.1,30.00,South,182,3.0,4.0,91,0.00,,SKC,0.00,VWS V14.01,2013-06-16 13:08:00,
2013-06-16 08:13:00,76.0,72.9,30.00,South,183,3.0,7.0,90,0.00,,SKC,0.00,VWS V14.01,2013-06-16 13:13:00,
2013-06-16 08:18:00,76.2,73.1,30.00,South,184,2.0,10.0,90,0.00,,SKC,0.00,VWS V14.01,2013-06-16 13:18:00,
2013-06-16 08:23:00,76.3,72.8,30.00,South,182,3.0,10.0,89,0.00,,SKC,0.00,VWS V14.01,2013-06-16 13:23:00,
2013-06-16 08:28:00,76.4,72.9,30.00,South,182,0.0,10.0,89,0.00,,SKC,0.00,VWS V14.01,2013-06-16 13:28:00,
2013-06-16 08:33:00,76.7,72.9,30.00,SSE,167,5.0,10.0,88,0.00,,SKC,0.00,VWS V14.01,2013-06-16 13:33:00,
2013-06-16 08:38:00,77.0,73.2,30.00,South,186,7.0,11.0,88,0.00,,SKC,0.00,VWS V14.01,2013-06-16 13:38:00,
2013-06-16 08:43:00,77.4,73.2,30.00,South,171,4.0,11.0,87,0.00,,SKC,0.00,VWS V14.01,2013-06-16 13:43:00,
2013-06-16 08:48:00,77.6,73.1,30.01,South,187,7.0,11.0,86,0.00,,SKC,0.00,VWS V14.01,2013-06-16 13:48:00,
2013-06-16 08:53:00,77.9,73.0,30.01,South,190,4.0,11.0,85,0.00,,SKC,0.00,VWS V14.01,2013-06-16 13:53:00,
2013-06-16 08:58:00,78.2,73.3,30.01,South,184,6.0,11.0,85,0.00,,SKC,0.00,VWS V14.01,2013-06-16 13:58:00,
2013-06-16 09:03:00,78.3,73.1,30.00,South,182,5.0,9.0,84,0.00,,SKC,0.00,VWS V14.01,2013-06-16 14:03:00,
2013-06-16 09:08:00,78.1,72.5,30.01,SSW,194,9.0,12.0,83,0.00,,SKC,0.00,VWS V14.01,2013-06-16 14:08:00,
2013-06-16 09:13:00,78.0,72.8,30.01,South,169,6.0,12.0,84,0.00,,SKC,0.00,VWS V14.01,2013-06-16 14:13:00,
2013-06-16 09:18:00,77.9,72.7,30.01,SSE,160,4.0,12.0,84,0.00,,SKC,0.00,VWS V14.01,2013-06-16 14:18:00,
2013-06-16 09:23:00,77.8,72.9,30.01,SSE,149,5.0,12.0,85,0.00,,SKC,0.00,VWS V14.01,2013-06-16 14:23:00,
2013-06-16 09:28:00,77.8,72.9,30.01,SSE,163,6.0,12.0,85,0.00,,SKC,0.00,VWS V14.01,2013-06-16 14:28:00,
2013-06-16 09:33:00,78.0,72.8,30.01,SE,145,4.0,7.0,84,0.00,,SKC,0.00,VWS V14.01,2013-06-16 14:33:00,
2013-06-16 09:38:00,78.2,73.0,30.01,SSW,196,5.0,11.0,84,0.00,,SKC,0.00,VWS V14.01,2013-06-16 14:38:00,
2013-06-16 09:43:00,78.5,73.3,30.01,SSW,198,4.0,13.0,84,0.00,,SKC,0.00,VWS V14.01,2013-06-16 14:43:00,
2013-06-16 09:48:00,78.8,73.2,30.01,South,172,2.0,13.0,83,0.00,,SKC,0.00,VWS V14.01,2013-06-16 14:48:00,
2013-06-16 09:53:00,79.1,73.5,30.01,South,174,6.0,13.0,83,0.00,,SKC,0.00,VWS V14.01,2013-06-16 14:53:00,
2013-06-16 09:58:00,79.4,73.4,30.02,SSE,155,4.0,13.0,82,0.00,,SKC,0.00,VWS V14.01,2013-06-16 14:58:00,
2013-06-16 10:03:00,79.6,73.6,30.01,SSE,159,6.0,6.0,82,0.00,,SKC,0.00,VWS V14.01,2013-06-16 15:03:00,
2013-06-16 10:08:00,80.0,73.3,30.01,SSE,159,5.0,10.0,80,0.00,,SKC,0.00,VWS V14.01,2013-06-16 15:08:00,
2013-06-16 10:13:00,80.5,73.4,30.01,SSW,203,6.0,13.0,79,0.00,,SKC,0.00,VWS V14.01,2013-06-16 15:13:00,
2013-06-16 10:18:00,81.1,74.0,30.01,SSW,198,10.0,13.0,79,0.00,,SKC,0.00,VWS V14.01,2013-06-16 15:18:00,
2013-06-16 10:23:00,81.4,73.9,30.02,South,191,5.0,13.0,78,0.00,,SKC,0.00,VWS V14.01,2013-06-16 15:23:00,
2013-06-16 10:28:00,81.4,73.9,30.02,South,179,2.0,14.0,78,0.00,,SKC,0.00,VWS V14.01,2013-06-16 15:28:00,
2013-06-16 10:33:00,81.4,73.9,30.01,South,173,5.0,11.0,78,0.00,,SKC,0.00,VWS V14.01,2013-06-16 15:33:00,
2013-06-16 10:38:00,81.3,73.8,30.02,SSW,202,10.0,16.0,78,0.00,,SKC,0.00,VWS V14.01,2013-06-16 15:38:00,
2013-06-16 10:43:00,81.3,74.2,30.02,SSW,197,3.0,16.0,79,0.00,,SKC,0.00,VWS V14.01,2013-06-16 15:43:00,
2013-06-16 10:48:00,81.4,73.9,30.02,South,186,4.0,16.0,78,0.00,,SKC,0.00,VWS V14.01,2013-06-16 15:48:00,
2013-06-16 10:53:00,81.4,73.9,30.02,SSW,207,5.0,16.0,78,0.00,,SKC,0.00,VWS V14.01,2013-06-16 15:53:00,
2013-06-16 10:58:00,81.3,73.4,30.02,SSW,200,8.0,16.0,77,0.00,,SKC,0.00,VWS V14.01,2013-06-16 15:58:00,
2013-06-16 11:03:00,81.2,73.7,30.02,SSW,199,6.0,7.0,78,0.00,,SKC,0.00,VWS V14.01,2013-06-16 16:03:00,
2013-06-16 11:08:00,81.4,73.9,30.02,SSW,207,4.0,13.0,78,0.00,,SKC,0.00,VWS V14.01,2013-06-16 16:08:00,
2013-06-16 11:13:00,81.9,74.0,30.02,SSE,161,2.0,13.0,77,0.00,,SKC,0.00,VWS V14.01,2013-06-16 16:13:00,
2013-06-16 11:18:00,82.7,74.0,30.02,SSW,210,7.0,14.0,75,0.00,,SKC,0.00,VWS V14.01,2013-06-16 16:18:00,
2013-06-16 11:23:00,83.4,73.8,30.02,SSE,151,5.0,14.0,73,0.00,,SKC,0.00,VWS V14.01,2013-06-16 16:23:00,
2013-06-16 11:28:00,83.8,73.8,30.02,SSE,157,6.0,14.0,72,0.00,,SKC,0.00,VWS V14.01,2013-06-16 16:28:00,
2013-06-16 11:33:00,84.1,74.1,30.02,SSE,155,4.0,4.0,72,0.00,,SKC,0.00,VWS V14.01,2013-06-16 16:33:00,
2013-06-16 11:38:00,84.6,74.2,30.02,SSE,164,2.0,7.0,71,0.00,,SKC,0.00,VWS V14.01,2013-06-16 16:38:00,
2013-06-16 11:43:00,84.9,74.0,30.02,SSW,204,4.0,14.0,70,0.00,,SKC,0.00,VWS V14.01,2013-06-16 16:43:00,
2013-06-16 11:48:00,85.1,73.8,30.02,SSW,193,4.0,14.0,69,0.00,,SKC,0.00,VWS V14.01,2013-06-16 16:48:00,
2013-06-16 11:53:00,85.4,74.1,30.02,SSW,198,11.0,14.0,69,0.00,,SKC,0.00,VWS V14.01,2013-06-16 16:53:00,
2013-06-16 11:58:00,85.5,75.0,30.01,SSW,196,3.0,14.0,71,0.00,,SKC,0.00,VWS V14.01,2013-06-16 16:58:00,
2013-06-16 12:00:00,85.8,74.9,30.01,South,180,3.0,14.0,70,0.00,,SKC,0.00,VWS V14.01,2013-06-16 17:00:00,
2013-06-16 12:04:00,85.8,74.0,30.01,South,175,5.0,5.0,68,0.00,,SKC,0.00,VWS V14.01,2013-06-16 17:04:00,
2013-06-16 12:09:00,85.9,74.6,30.01,SSE,155,5.0,9.0,69,0.00,,SKC,0.00,VWS V14.01,2013-06-16 17:09:00,
2013-06-16 12:14:00,85.9,74.6,30.02,South,184,2.0,10.0,69,0.00,,SKC,0.00,VWS V14.01,2013-06-16 17:14:00,
2013-06-16 12:19:00,86.1,73.9,30.01,South,175,1.0,10.0,67,0.00,,SKC,0.00,VWS V14.01,2013-06-16 17:19:00,
2013-06-16 12:24:00,86.2,73.5,30.01,SSE,150,4.0,10.0,66,0.00,,SKC,0.00,VWS V14.01,2013-06-16 17:24:00,
2013-06-16 12:29:00,86.5,73.3,30.00,SE,146,8.0,13.0,65,0.00,,SKC,0.00,VWS V14.01,2013-06-16 17:29:00,
2013-06-16 12:30:00,86.5,73.3,30.00,SE,143,3.0,13.0,65,0.00,,SKC,0.00,VWS V14.01,2013-06-16 17:30:00,
2013-06-16 12:34:00,86.7,73.1,30.01,SSE,151,3.0,11.0,64,0.00,,SKC,0.00,VWS V14.01,2013-06-16 17:34:00,
2013-06-16 12:39:00,86.8,73.6,30.01,South,171,5.0,11.0,65,0.00,,SKC,0.00,VWS V14.01,2013-06-16 17:39:00,
2013-06-16 12:44:00,86.7,72.6,30.01,SE,140,3.0,12.0,63,0.00,,SKC,0.00,VWS V14.01,2013-06-16 17:44:00,
2013-06-16 12:49:00,86.9,73.3,30.00,SE,142,4.0,12.0,64,0.00,,SKC,0.00,VWS V14.01,2013-06-16 17:49:00,
2013-06-16 12:54:00,87.2,73.6,30.00,SE,142,6.0,14.0,64,0.00,,SKC,0.00,VWS V14.01,2013-06-16 17:54:00,
2013-06-16 12:59:00,87.3,73.6,30.00,SSE,158,4.0,14.0,64,0.00,,SKC,0.00,VWS V14.01,2013-06-16 17:59:00,
2013-06-16 13:00:00,87.3,73.6,30.00,South,171,7.0,14.0,64,0.00,,SKC,0.00,VWS V14.01,2013-06-16 18:00:00,
2013-06-16 13:04:00,87.3,73.6,30.00,South,180,1.0,7.0,64,0.00,,SKC,0.00,VWS V14.01,2013-06-16 18:04:00,
2013-06-16 13:09:00,87.5,74.3,30.00,South,178,4.0,9.0,65,0.00,,SKC,0.00,VWS V14.01,2013-06-16 18:09:00,
2013-06-16 13:14:00,87.8,74.1,30.00,South,171,6.0,16.0,64,0.00,,SKC,0.00,VWS V14.01,2013-06-16 18:14:00,
2013-06-16 13:19:00,88.0,73.4,30.00,SSE,167,2.0,16.0,62,0.00,,SKC,0.00,VWS V14.01,2013-06-16 18:19:00,
2013-06-16 13:24:00,88.2,74.0,30.00,South,177,3.0,16.0,63,0.00,,SKC,0.00,VWS V14.01,2013-06-16 18:24:00,
2013-06-16 13:29:00,88.2,73.6,30.00,SSW,198,4.0,16.0,62,0.00,,SKC,0.00,VWS V14.01,2013-06-16 18:29:00,
2013-06-16 13:30:00,88.2,74.0,30.00,SSE,157,4.0,16.0,63,0.00,,SKC,0.00,VWS V14.01,2013-06-16 18:30:00,
2013-06-16 13:34:00,88.0,73.4,30.00,South,181,5.0,8.0,62,0.00,,SKC,0.00,VWS V14.01,2013-06-16 18:34:00,
2013-06-16 13:39:00,88.0,73.4,29.99,South,169,4.0,8.0,62,0.00,,SKC,0.00,VWS V14.01,2013-06-16 18:39:00,
2013-06-16 13:44:00,88.2,73.6,30.00,SSW,194,6.0,12.0,62,0.00,,SKC,0.00,VWS V14.01,2013-06-16 18:44:00,
2013-06-16 13:49:00,88.1,72.5,30.00,SE,140,9.0,12.0,60,0.00,,SKC,0.00,VWS V14.01,2013-06-16 18:49:00,
2013-06-16 13:54:00,88.1,73.0,29.99,SSW,198,8.0,14.0,61,0.00,,SKC,0.00,VWS V14.01,2013-06-16 18:54:00,
2013-06-16 13:59:00,88.3,73.2,29.99,South,183,6.0,14.0,61,0.00,,SKC,0.00,VWS V14.01,2013-06-16 18:59:00,
2013-06-16 14:00:00,88.4,73.7,29.99,SSE,165,3.0,14.0,62,0.00,,SKC,0.00,VWS V14.01,2013-06-16 19:00:00,
2013-06-16 14:04:00,88.5,73.8,29.99,South,184,6.0,10.0,62,0.00,,SKC,0.00,VWS V14.01,2013-06-16 19:04:00,
2013-06-16 14:09:00,88.7,73.5,29.99,South,189,0.0,10.0,61,0.00,,SKC,0.00,VWS V14.01,2013-06-16 19:09:00,
2013-06-16 14:14:00,88.7,74.0,29.99,South,190,2.0,11.0,62,0.00,,SKC,0.00,VWS V14.01,2013-06-16 19:14:00,
2013-06-16 14:19:00,88.9,72.7,29.99,SSW,197,6.0,14.0,59,0.00,,SKC,0.00,VWS V14.01,2013-06-16 19:19:00,
2013-06-16 14:24:00,89.1,73.9,29.98,SSW,195,5.0,14.0,61,0.00,,SKC,0.00,VWS V14.01,2013-06-16 19:24:00,
2013-06-16 14:29:00,89.2,74.0,29.98,SSW,200,4.0,14.0,61,0.00,,SKC,0.00,VWS V14.01,2013-06-16 19:29:00,
2013-06-16 14:30:00,89.4,74.2,29.98,SSW,193,4.0,14.0,61,0.00,,SKC,0.00,VWS V14.01,2013-06-16 19:30:00,
2013-06-16 14:34:00,89.5,74.3,29.98,SSW,196,4.0,9.0,61,0.00,,SKC,0.00,VWS V14.01,2013-06-16 19:34:00,
2013-06-16 14:39:00,89.7,74.0,29.97,SSE,153,6.0,9.0,60,0.00,,SKC,0.00,VWS V14.01,2013-06-16 19:39:00,
2013-06-16 14:44:00,89.6,73.9,29.97,SSE,147,5.0,11.0,60,0.00,,SKC,0.00,VWS V14.01,2013-06-16 19:44:00,
2013-06-16 14:49:00,89.7,74.5,29.97,SSE,160,7.0,11.0,61,0.00,,SKC,0.00,VWS V14.01,2013-06-16 19:49:00,
2013-06-16 14:54:00,90.0,74.3,29.97,SSW,203,4.0,11.0,60,0.00,,SKC,0.00,VWS V14.01,2013-06-16 19:54:00,
2013-06-16 14:59:00,90.4,74.6,29.97,South,186,3.0,11.0,60,0.00,,SKC,0.00,VWS V14.01,2013-06-16 19:59:00,
2013-06-16 15:00:00,90.6,74.8,29.97,SSE,161,2.0,11.0,60,0.00,,SKC,0.00,VWS V14.01,2013-06-16 20:00:00,
2013-06-16 15:04:00,90.8,74.0,29.97,SSW,204,4.0,12.0,58,0.00,,SKC,0.00,VWS V14.01,2013-06-16 20:04:00,
2013-06-16 15:09:00,90.9,74.6,29.96,South,188,7.0,12.0,59,0.00,,SKC,0.00,VWS V14.01,2013-06-16 20:09:00,
2013-06-16 15:14:00,91.0,74.7,29.96,South,174,4.0,12.0,59,0.00,,SKC,0.00,VWS V14.01,2013-06-16 20:14:00,
2013-06-16 15:19:00,91.0,74.7,29.96,SSE,166,3.0,12.0,59,0.00,,SKC,0.00,VWS V14.01,2013-06-16 20:19:00,
2013-06-16 15:24:00,90.9,73.6,29.96,SSE,157,3.0,12.0,57,0.00,,SKC,0.00,VWS V14.01,2013-06-16 20:24:00,
2013-06-16 15:29:00,90.6,73.8,29.96,SSE,156,5.0,12.0,58,0.00,,SKC,0.00,VWS V14.01,2013-06-16 20:29:00,
2013-06-16 15:30:00,90.5,74.2,29.95,East,98,9.0,12.0,59,0.00,,SKC,0.00,VWS V14.01,2013-06-16 20:30:00,
2013-06-16 15:34:00,90.6,74.3,29.95,South,186,7.0,10.0,59,0.00,,SKC,0.00,VWS V14.01,2013-06-16 20:34:00,
2013-06-16 15:39:00,90.2,73.4,29.95,SE,143,3.0,13.0,58,0.00,,SKC,0.00,VWS V14.01,2013-06-16 20:39:00,
2013-06-16 15:44:00,90.1,73.8,29.95,SE,144,6.0,13.0,59,0.00,,SKC,0.00,VWS V14.01,2013-06-16 20:44:00,
2013-06-16 15:49:00,90.1,73.3,29.95,SSE,157,0.0,13.0,58,0.00,,SKC,0.00,VWS V14.01,2013-06-16 20:49:00,
2013-06-16 15:54:00,90.4,73.1,29.95,SSE,157,2.0,13.0,57,0.00,,SKC,0.00,VWS V14.01,2013-06-16 20:54:00,
2013-06-16 15:59:00,90.8,74.0,29.94,SSE,157,0.0,13.0,58,0.00,,SKC,0.00,VWS V14.01,2013-06-16 20:59:00,
2013-06-16 16:00:00,91.0,73.7,29.94,SSE,149,4.0,13.0,57,0.00,,SKC,0.00,VWS V14.01,2013-06-16 21:00:00,
2013-06-16 16:04:00,91.1,73.8,29.94,SSE,148,3.0,9.0,57,0.00,,SKC,0.00,VWS V14.01,2013-06-16 21:04:00,
2013-06-16 16:09:00,91.3,72.9,29.94,SSE,147,3.0,9.0,55,0.00,,SKC,0.00,VWS V14.01,2013-06-16 21:09:00,
2013-06-16 16:14:00,91.6,74.2,29.94,SSE,163,4.0,9.0,57,0.00,,SKC,0.00,VWS V14.01,2013-06-16 21:14:00,
2013-06-16 16:19:00,91.9,74.0,29.94,SSW,196,5.0,10.0,56,0.00,,SKC,0.00,VWS V14.01,2013-06-16 21:19:00,
2013-06-16 16:24:00,92.0,74.1,29.94,SSW,203,5.0,10.0,56,0.00,,SKC,0.00,VWS V14.01,2013-06-16 21:24:00,
2013-06-16 16:29:00,92.2,74.2,29.94,SSW,203,1.0,10.0,56,0.00,,SKC,0.00,VWS V14.01,2013-06-16 21:29:00,
2013-06-16 16:30:00,92.4,73.3,29.93,SW,215,4.0,10.0,54,0.00,,SKC,0.00,VWS V14.01,2013-06-16 21:30:00,
2013-06-16 16:34:00,92.5,74.0,29.93,SSW,213,1.0,7.0,55,0.00,,SKC,0.00,VWS V14.01,2013-06-16 21:34:00,
2013-06-16 16:39:00,92.8,74.8,29.93,SSW,209,6.0,10.0,56,0.00,,SKC,0.00,VWS V14.01,2013-06-16 21:39:00,
2013-06-16 16:44:00,92.8,73.2,29.93,SSW,195,6.0,10.0,53,0.00,,SKC,0.00,VWS V14.01,2013-06-16 21:44:00,
2013-06-16 16:49:00,92.4,73.9,29.93,SSW,194,4.0,11.0,55,0.00,,SKC,0.00,VWS V14.01,2013-06-16 21:49:00,
2013-06-16 16:54:00,92.4,73.9,29.93,SSW,199,2.0,11.0,55,0.00,,SKC,0.00,VWS V14.01,2013-06-16 21:54:00,
2013-06-16 16:59:00,92.3,72.7,29.93,SSW,200,4.0,11.0,53,0.00,,SKC,0.00,VWS V14.01,2013-06-16 21:59:00,
2013-06-16 17:00:00,92.3,73.3,29.93,SSW,196,0.0,11.0,54,0.00,,SKC,0.00,VWS V14.01,2013-06-16 22:00:00,
2013-06-16 17:04:00,92.3,72.7,29.93,SSW,196,0.0,1.0,53,0.00,,SKC,0.00,VWS V14.01,2013-06-16 22:04:00,
2013-06-16 17:09:00,92.4,72.8,29.93,SSW,192,4.0,6.0,53,0.00,,SKC,0.00,VWS V14.01,2013-06-16 22:09:00,
2013-06-16 17:14:00,92.5,72.3,29.92,SSE,150,2.0,11.0,52,0.00,,SKC,0.00,VWS V14.01,2013-06-16 22:14:00,
2013-06-16 17:19:00,92.4,71.7,29.92,SSE,149,1.0,11.0,51,0.00,,SKC,0.00,VWS V14.01,2013-06-16 22:19:00,
2013-06-16 17:24:00,92.4,71.7,29.91,SSE,155,3.0,11.0,51,0.00,,SKC,0.00,VWS V14.01,2013-06-16 22:24:00,
2013-06-16 17:29:00,92.5,73.4,29.91,SSE,161,1.0,13.0,54,0.00,,SKC,0.00,VWS V14.01,2013-06-16 22:29:00,
2013-06-16 17:30:00,92.5,72.3,29.91,SSE,162,1.0,13.0,52,0.00,,SKC,0.00,VWS V14.01,2013-06-16 22:30:00,
2013-06-16 17:34:00,92.5,72.9,29.91,SSE,162,6.0,6.0,53,0.00,,SKC,0.00,VWS V14.01,2013-06-16 22:34:00,
2013-06-16 17:39:00,92.6,72.4,29.91,South,185,10.0,10.0,52,0.00,,SKC,0.00,VWS V14.01,2013-06-16 22:39:00,
2013-06-16 17:44:00,92.7,72.5,29.90,SSE,163,10.0,10.0,52,0.00,,SKC,0.00,VWS V14.01,2013-06-16 22:44:00,
2013-06-16 17:49:00,92.6,70.7,29.91,SSE,153,5.0,10.0,49,0.00,,SKC,0.00,VWS V14.01,2013-06-16 22:49:00,
2013-06-16 17:54:00,92.4,71.1,29.91,SSE,149,3.0,11.0,50,0.00,,SKC,0.00,VWS V14.01,2013-06-16 22:54:00,
2013-06-16 17:59:00,92.3,71.6,29.91,SE,145,5.0,11.0,51,0.00,,SKC,0.00,VWS V14.01,2013-06-16 22:59:00,
2013-06-16 18:00:00,92.2,71.5,29.90,SE,146,2.0,11.0,51,0.00,,SKC,0.00,VWS V14.01,2013-06-16 23:00:00,
2013-06-16 18:04:00,92.2,71.5,29.90,SSE,159,10.0,10.0,51,0.00,,SKC,0.00,VWS V14.01,2013-06-16 23:04:00,
2013-06-16 18:09:00,92.1,72.0,29.90,SSE,150,1.0,10.0,52,0.00,,SKC,0.00,VWS V14.01,2013-06-16 23:09:00,
2013-06-16 18:14:00,92.1,70.8,29.90,SSE,150,1.0,10.0,50,0.00,,SKC,0.00,VWS V14.01,2013-06-16 23:14:00,
2013-06-16 18:19:00,92.1,71.4,29.90,SSE,150,3.0,10.0,51,0.00,,SKC,0.00,VWS V14.01,2013-06-16 23:19:00,
2013-06-16 18:24:00,92.2,70.9,29.90,SSE,150,2.0,10.0,50,0.00,,SKC,0.00,VWS V14.01,2013-06-16 23:24:00,
2013-06-16 18:29:00,92.3,72.1,29.90,SSE,150,5.0,10.0,52,0.00,,SKC,0.00,VWS V14.01,2013-06-16 23:29:00,
2013-06-16 18:30:00,92.2,71.5,29.90,SSE,150,4.0,10.0,51,0.00,,SKC,0.00,VWS V14.01,2013-06-16 23:30:00,
2013-06-16 18:34:00,92.2,71.5,29.90,SSE,150,0.0,6.0,51,0.00,,SKC,0.00,VWS V14.01,2013-06-16 23:34:00,
2013-06-16 18:39:00,92.2,70.9,29.90,SSE,150,3.0,6.0,50,0.00,,SKC,0.00,VWS V14.01,2013-06-16 23:39:00,
2013-06-16 18:44:00,92.2,71.5,29.90,SSE,148,5.0,6.0,51,0.00,,SKC,0.00,VWS V14.01,2013-06-16 23:44:00,
2013-06-16 18:48:00,92.1,70.2,29.90,SE,144,4.0,10.0,49,0.00,,SKC,0.00,VWS V14.01,2013-06-16 23:48:00,
2013-06-16 18:53:00,91.9,70.0,29.90,SE,144,4.0,10.0,49,0.00,,SKC,0.00,VWS V14.01,2013-06-16 23:53:00,
2013-06-16 18:58:00,91.8,69.3,29.90,SE,144,0.0,10.0,48,0.00,,SKC,0.00,VWS V14.01,2013-06-16 23:58:00,
2013-06-16 19:00:00,91.7,68.6,29.90,SE,144,0.0,10.0,47,0.00,,SKC,0.00,VWS V14.01,2013-06-17 00:00:00,
2013-06-16 19:03:00,91.7,69.2,29.90,SE,144,0.0,3.0,48,0.00,,SKC,0.00,VWS V14.01,2013-06-17 00:03:00,
2013-06-16 19:08:00,91.7,69.8,29.90,SE,144,0.0,3.0,49,0.00,,SKC,0.00,VWS V14.01,2013-06-17 00:08:00,
2013-06-16 19:13:00,91.7,69.8,29.90,SE,142,2.0,6.0,49,0.00,,SKC,0.00,VWS V14.01,2013-06-17 00:13:00,
2013-06-16 19:18:00,91.6,70.9,29.90,SE,142,2.0,6.0,51,0.00,,SKC,0.00,VWS V14.01,2013-06-17 00:18:00,
2013-06-16 19:23:00,91.5,70.2,29.90,SE,143,2.0,6.0,50,0.00,,SKC,0.00,VWS V14.01,2013-06-17 00:23:00,
2013-06-16 19:28:00,91.3,69.5,29.90,SE,143,4.0,6.0,49,0.00,,SKC,0.00,VWS V14.01,2013-06-17 00:28:00,
2013-06-16 19:30:00,91.2,69.4,29.90,SE,143,0.0,6.0,49,0.00,,SKC,0.00,VWS V14.01,2013-06-17 00:30:00,
2013-06-16 19:33:00,91.1,69.3,29.90,SE,143,5.0,6.0,49,0.00,,SKC,0.00,VWS V14.01,2013-06-17 00:33:00,
2013-06-16 19:38:00,90.9,69.7,29.90,SE,143,3.0,6.0,50,0.00,,SKC,0.00,VWS V14.01,2013-06-17 00:38:00,
2013-06-16 19:43:00,90.8,71.3,29.90,SE,144,2.0,9.0,53,0.00,,SKC,0.00,VWS V14.01,2013-06-17 00:43:00,
2013-06-16 19:48:00,90.5,71.6,29.89,SE,144,3.0,10.0,54,0.00,,SKC,0.00,VWS V14.01,2013-06-17 00:48:00,
2013-06-16 19:53:00,90.1,72.3,29.89,SSE,148,6.0,10.0,56,0.00,,SKC,0.00,VWS V14.01,2013-06-17 00:53:00,
2013-06-16 19:58:00,89.8,72.6,29.89,SE,146,4.0,10.0,57,0.00,,SKC,0.00,VWS V14.01,2013-06-17 00:58:00,
2013-06-16 20:00:00,89.6,72.9,29.89,SE,145,0.0,13.0,58,0.00,,SKC,0.00,VWS V14.01,2013-06-17 01:00:00,
2013-06-16 20:03:00,89.5,72.8,29.89,SE,145,6.0,10.0,58,0.00,,SKC,0.00,VWS V14.01,2013-06-17 01:03:00,
2013-06-16 20:08:00,89.2,73.0,29.89,SE,143,2.0,10.0,59,0.00,,SKC,0.00,VWS V14.01,2013-06-17 01:08:00,
2013-06-16 20:13:00,88.9,73.2,29.89,SSE,148,9.0,11.0,60,0.00,,SKC,0.00,VWS V14.01,2013-06-17 01:13:00,
2013-06-16 20:18:00,88.7,73.5,29.89,SSE,148,3.0,13.0,61,0.00,,SKC,0.00,VWS V14.01,2013-06-17 01:18:00,
2013-06-16 20:23:00,88.4,73.2,29.90,SSE,148,5.0,13.0,61,0.00,,SKC,0.00,VWS V14.01,2013-06-17 01:23:00,
2013-06-16 20:28:00,88.1,73.4,29.90,SE,146,3.0,13.0,62,0.00,,SKC,0.00,VWS V14.01,2013-06-17 01:28:00,
2013-06-16 20:30:00,87.9,73.3,29.90,SE,142,2.0,13.0,62,0.00,,SKC,0.00,VWS V14.01,2013-06-17 01:30:00,
2013-06-16 20:33:00,87.8,73.6,29.90,SE,144,5.0,8.0,63,0.00,,SKC,0.00,VWS V14.01,2013-06-17 01:33:00,
2013-06-16 20:38:00,87.5,73.4,29.90,SE,144,1.0,8.0,63,0.00,,SKC,0.00,VWS V14.01,2013-06-17 01:38:00,
2013-06-16 20:43:00,87.2,73.6,29.90,SE,144,5.0,8.0,64,0.00,,SKC,0.00,VWS V14.01,2013-06-17 01:43:00,
2013-06-16 20:48:00,86.9,73.7,29.91,SE,144,5.0,8.0,65,0.00,,SKC,0.00,VWS V14.01,2013-06-17 01:48:00,
2013-06-16 20:53:00,86.5,73.3,29.91,SE,143,7.0,15.0,65,0.00,,SKC,0.00,VWS V14.01,2013-06-17 01:53:00,
2013-06-16 20:58:00,86.0,72.4,29.91,SSE,149,3.0,17.0,64,0.00,,SKC,0.00,VWS V14.01,2013-06-17 01:58:00,
2013-06-16 21:00:00,85.8,72.7,29.91,SE,138,14.0,17.0,65,0.00,,SKC,0.00,VWS V14.01,2013-06-17 02:00:00,
2013-06-16 21:03:00,85.7,72.6,29.91,SE,146,6.0,14.0,65,0.00,,SKC,0.00,VWS V14.01,2013-06-17 02:03:00,
2013-06-16 21:08:00,85.4,73.2,29.92,SE,144,2.0,14.0,67,0.00,,SKC,0.00,VWS V14.01,2013-06-17 02:08:00,
2013-06-16 21:13:00,85.1,73.4,29.92,SSE,166,3.0,14.0,68,0.00,,SKC,0.00,VWS V14.01,2013-06-17 02:13:00,
2013-06-16 21:18:00,84.8,73.5,29.92,SSE,150,7.0,14.0,69,0.00,,SKC,0.00,VWS V14.01,2013-06-17 02:18:00,
2013-06-16 21:23:00,84.4,74.0,29.92,SE,146,5.0,14.0,71,0.00,,SKC,0.00,VWS V14.01,2013-06-17 02:23:00,
2013-06-16 21:28:00,84.1,73.7,29.92,SE,144,3.0,14.0,71,0.00,,SKC,0.00,VWS V14.01,2013-06-17 02:28:00,
2013-06-16 21:30:00,83.9,73.9,29.92,SSE,148,4.0,14.0,72,0.00,,SKC,0.00,VWS V14.01,2013-06-17 02:30:00,
2013-06-16 21:33:00,83.9,73.9,29.92,SSE,148,4.0,5.0,72,0.00,,SKC,0.00,VWS V14.01,2013-06-17 02:33:00,
2013-06-16 21:38:00,83.6,74.0,29.93,SSE,150,3.0,11.0,73,0.00,,SKC,0.00,VWS V14.01,2013-06-17 02:38:00,
2013-06-16 21:43:00,83.4,73.8,29.93,SSE,150,3.0,11.0,73,0.00,,SKC,0.00,VWS V14.01,2013-06-17 02:43:00,
2013-06-16 21:48:00,83.2,74.1,29.93,SSE,148,9.0,12.0,74,0.00,,SKC,0.00,VWS V14.01,2013-06-17 02:48:00,
2013-06-16 21:53:00,82.9,73.8,29.93,SSE,151,2.0,12.0,74,0.00,,SKC,0.00,VWS V14.01,2013-06-17 02:53:00,
2013-06-16 21:58:00,82.8,74.1,29.93,SSE,153,7.0,12.0,75,0.00,,SKC,0.00,VWS V14.01,2013-06-17 02:58:00,
2013-06-16 22:00:00,82.6,73.9,29.93,SSE,149,2.0,12.0,75,0.00,,SKC,0.00,VWS V14.01,2013-06-17 03:00:00,
2013-06-16 22:03:00,82.5,74.2,29.93,SSE,149,5.0,7.0,76,0.00,,SKC,0.00,VWS V14.01,2013-06-17 03:03:00,
2013-06-16 22:08:00,82.2,73.9,29.94,SSE,148,5.0,10.0,76,0.00,,SKC,0.00,VWS V14.01,2013-06-17 03:08:00,
2013-06-16 22:13:00,82.0,73.7,29.94,SSE,148,6.0,10.0,76,0.00,,SKC,0.00,VWS V14.01,2013-06-17 03:13:00,
2013-06-16 22:18:00,81.6,73.3,29.94,SE,144,6.0,10.0,76,0.00,,SKC,0.00,VWS V14.01,2013-06-17 03:18:00,
2013-06-16 22:23:00,81.4,73.5,29.95,SE,145,3.0,10.0,77,0.00,,SKC,0.00,VWS V14.01,2013-06-17 03:23:00,
2013-06-16 22:28:00,81.2,73.3,29.95,SSE,153,2.0,10.0,77,0.00,,SKC,0.00,VWS V14.01,2013-06-17 03:28:00,
2013-06-16 22:30:00,81.1,73.2,29.95,SSE,153,1.0,10.0,77,0.00,,SKC,0.00,VWS V14.01,2013-06-17 03:30:00,
2013-06-16 22:33:00,81.1,73.2,29.95,SSE,152,6.0,10.0,77,0.00,,SKC,0.00,VWS V14.01,2013-06-17 03:33:00,
2013-06-16 22:38:00,80.9,73.4,29.95,SE,146,6.0,11.0,78,0.00,,SKC,0.00,VWS V14.01,2013-06-17 03:38:00,
2013-06-16 22:43:00,80.7,73.2,29.96,SE,145,6.0,11.0,78,0.00,,SKC,0.00,VWS V14.01,2013-06-17 03:43:00,
2013-06-16 22:48:00,80.6,73.5,29.96,SSE,148,5.0,11.0,79,0.00,,SKC,0.00,VWS V14.01,2013-06-17 03:48:00,
2013-06-16 22:53:00,80.4,73.3,29.96,SE,146,6.0,11.0,79,0.00,,SKC,0.00,VWS V14.01,2013-06-17 03:53:00,
2013-06-16 22:58:00,80.3,73.6,29.96,SSE,148,5.0,11.0,80,0.00,,SKC,0.00,VWS V14.01,2013-06-17 03:58:00,
2013-06-16 23:00:00,80.2,73.5,29.96,SE,144,5.0,12.0,80,0.00,,SKC,0.00,VWS V14.01,2013-06-17 04:00:00,
2013-06-16 23:01:00,80.2,73.5,29.96,SSE,147,7.0,11.0,80,0.00,,SKC,0.00,VWS V14.01,2013-06-17 04:01:00,
2013-06-16 23:06:00,80.1,73.4,29.96,SSE,147,5.0,11.0,80,0.00,,SKC,0.00,VWS V14.01,2013-06-17 04:06:00,
2013-06-16 23:11:00,80.0,73.3,29.95,SE,146,7.0,12.0,80,0.00,,SKC,0.00,VWS V14.01,2013-06-17 04:11:00,
2013-06-16 23:16:00,79.8,73.4,29.95,SE,146,2.0,12.0,81,0.00,,SKC,0.00,VWS V14.01,2013-06-17 04:16:00,
2013-06-16 23:21:00,79.7,73.4,29.95,SSE,150,4.0,12.0,81,0.00,,SKC,0.00,VWS V14.01,2013-06-17 04:21:00,
2013-06-16 23:26:00,79.6,73.3,29.95,SSE,150,3.0,12.0,81,0.00,,SKC,0.00,VWS V14.01,2013-06-17 04:26:00,
2013-06-16 23:30:00,79.4,73.4,29.95,SSE,150,2.0,12.0,82,0.00,,SKC,0.00,VWS V14.01,2013-06-17 04:30:00,
2013-06-16 23:31:00,79.5,73.5,29.95,SSE,150,2.0,12.0,82,0.00,,SKC,0.00,VWS V14.01,2013-06-17 04:31:00,
2013-06-16 23:36:00,79.4,73.4,29.95,SSE,149,2.0,7.0,82,0.00,,SKC,0.00,VWS V14.01,2013-06-17 04:36:00,
2013-06-16 23:41:00,79.2,73.2,29.95,SSE,147,3.0,10.0,82,0.00,,SKC,0.00,VWS V14.01,2013-06-17 04:41:00,
2013-06-16 23:46:00,79.1,73.1,29.95,SSE,147,5.0,10.0,82,0.00,,SKC,0.00,VWS V14.01,2013-06-17 04:46:00,
2013-06-16 23:51:00,78.9,73.3,29.95,SSE,148,5.0,10.0,83,0.00,,SKC,0.00,VWS V14.01,2013-06-17 04:51:00,
2013-06-16 23:56:00,78.8,73.2,29.95,SE,146,4.0,10.0,83,0.00,,SKC,0.00,VWS V14.01,2013-06-17 04:56:00,